Meteo Giornale » Osservazioni meteo Finlandia » Utti
ore: 22:20 - Osservazioni Meteo Utti
Lat. 60° 54' N Lon. 26° 56' E Alt. 100 metri s.l.m.
17 °C
Molto Nuvoloso
Temp. 24 Ore
15 °C
18 °C
Sud-Ovest
16.7 Km/h
Dew point 16 °C
Umidità 93 %
Visibilità 10 Km
Il sole sorge alle ore 06:02
Il sole tramonta alle ore 20:22
| Data e Ora | Cielo e Fenomeni | T °C | DP °C | Um. % | Pres. hPa | Vis. km | Vento km/h | |
|---|---|---|---|---|---|---|---|---|
| Oggi h: 22:20 | Molto Nuvoloso | 17 | 16 | 93 | 1006 | 10 | SO 16.7 | |
| Oggi h: 21:50 | Coperto | 17 | 16 | 93 | 1006 | 10 | SO 14.8 | |
| Oggi h: 21:20 | Molto Nuvoloso | 17 | 16 | 93 | 1006 | 10 | SO 14.8 | |
| Oggi h: 20:50 | Coperto | 17 | 16 | 93 | 1006 | 10 | S/SO 14.8 | |
| Oggi h: 20:20 | Molto Nuvoloso | 17 | 16 | 93 | 1005 | 10 | SO 14.8 | |
| Oggi h: 19:50 | Coperto | 17 | 16 | 93 | 1005 | 10 | S/SO 13 | |
| Oggi h: 19:20 | Coperto | 17 | 16 | 93 | 1005 | 10 | S/SO 14.8 | |
| Oggi h: 18:50 | Molto Nuvoloso | 18 | 16 | 88 | 1005 | 10 | S/SO 14.8 | |
| Oggi h: 18:20 | Molto Nuvoloso | 18 | 17 | 93 | 1005 | 10 | S/SO 14.8 | |
| Oggi h: 17:50 | Molto Nuvoloso | 18 | 17 | 93 | 1005 | 10 | S/SO 14.8 | |
| Oggi h: 17:20 | Coperto | 18 | 17 | 93 | 1005 | 10 | S/SO 14.8 | |
| Oggi h: 16:50 | Molto Nuvoloso | 18 | 17 | 93 | 1005 | 10 | S/SO 14.8 | |
| Oggi h: 16:20 | Coperto | 18 | 17 | 93 | 1005 | 10 | S/SO 16.7 | |
| Oggi h: 15:50 | Pioviggine | 17 | 17 | 100 | 1005 | 10 | S/SO 14.8 | |
| Oggi h: 15:20 | Pioviggine | 17 | 16 | 93 | 1005 | 4 | S 14.8 | |
| Oggi h: 14:50 | Pioggia | 17 | 16 | 93 | 1005 | 5 | S 14.8 | |
| Oggi h: 14:20 | Pioviggine | 17 | 16 | 93 | 1005 | 7 | S 13 | |
| Oggi h: 13:50 | Pioviggine | 17 | 16 | 93 | 1005 | 10 | S/SE 11.1 | |
| Oggi h: 13:20 | Pioggia | 17 | 16 | 93 | 1005 | 5 | S 16.7 | |
| Oggi h: 12:50 | Pioggia | 17 | 16 | 93 | 1005 | 6 | S 13 | |
| Oggi h: 12:20 | Pioggia | 16 | 16 | 100 | 1005 | 6 | SE 14.8 | |
| Oggi h: 11:50 | Pioggia | 16 | 16 | 100 | 1006 | 6 | S 18.5 | |
| Oggi h: 11:20 | Pioggia | 16 | 16 | 100 | 1006 | 10 | S 18.5 | |
| Oggi h: 10:50 | Pioggia | 16 | 16 | 100 | 1006 | 6 | S/SE 14.8 | |
| Oggi h: 10:20 | Pioggia | 16 | 16 | 100 | 1006 | 6 | S/SE 14.8 | |
| Oggi h: 09:50 | Pioviggine | 16 | 16 | 100 | 1006 | 8 | S/SE 13 | |
| Oggi h: 09:20 | Pioviggine | 16 | 16 | 100 | 1006 | 8 | S/SE 13 | |
| Oggi h: 08:50 | Pioviggine | 16 | 16 | 100 | 1006 | 10 | S/SE 14.8 | |
| Oggi h: 08:20 | Pioviggine | 16 | 16 | 100 | 1007 | 8 | S/SE 14.8 | |
| Oggi h: 07:50 | Pioviggine | 16 | 16 | 100 | 1007 | 8 | S/SE 13 | |
| Oggi h: 07:20 | Coperto | 16 | 15 | 93 | 1007 | 10 | S/SE 11.1 | |
| Oggi h: 06:50 | Molto Nuvoloso | 16 | 15 | 93 | 1007 | 9 | SE 13 | |
| Oggi h: 06:20 | Molto Nuvoloso | 16 | 15 | 93 | 1007 | 9 | S/SE 11.1 | |
| Oggi h: 05:50 | Pioggia | 16 | 16 | 100 | 1008 | 5 | S/SE 13 | |
| Oggi h: 05:20 | Coperto | 16 | 15 | 93 | 1008 | 8 | S/SE 13 | |
| Oggi h: 04:50 | Nebbia | 15 | 15 | 100 | 1008 | 0.9 | S/SE 9.3 | |
| Oggi h: 04:20 | Nebbia | 15 | 15 | 100 | 1008 | 0.7 | SE 11.1 | |
| Oggi h: 03:50 | Nebbia | 15 | 15 | 100 | 1008 | 0.9 | SE 9.3 | |
| Oggi h: 03:20 | Nebbia | 15 | 15 | 100 | 1008 | 0.65 | S/SE 7.4 | |
| Oggi h: 02:50 | Pioggia | 15 | 15 | 100 | 1009 | 0.75 | S 7.4 | |
| Oggi h: 02:20 | Foschia | 15 | 15 | 100 | 1009 | 3 | S 9.3 | |
| Oggi h: 01:50 | Coperto | 15 | 15 | 100 | 1009 | 5 | S/SO 9.3 | |
| Oggi h: 01:20 | Coperto | 15 | 14 | 93 | 1009 | 5 | S/SO 9.3 | |
| Oggi h: 00:50 | Coperto | 15 | 14 | 93 | 1009 | 5 | S/SO 11.1 | |
| Oggi h: 00:20 | Coperto | 15 | 14 | 93 | 1009 | 7 | S/SO 11.1 | |
| Ieri h: 23:50 | Molto Nuvoloso | 15 | 15 | 100 | 1009 | 8 | S 13 | |
| Ieri h: 23:20 | Molto Nuvoloso | 15 | 15 | 100 | 1009 | 10 | S/SO 11.1 | |
| Ieri h: 22:50 | Molto Nuvoloso | 16 | 15 | 93 | 1009 | 10 | S/SO 13 | |



